[[{"header":{"parameterUnit":"m.s-1","parameterCategory":1,"la1":30.2991,"la2":30.254,"lo1":-89.0895,"lo2":-89.0444,"dy":0.0017,"dx":0.0017,"nx":28,"ny":28,"refTime":"2024-10-09T09:00:00:Z","depth":0,"parameterNumber":2,"parameterNumberName":"U-component_of_WINDS"},"data":[0,0,0,0,0,0,0,0,0,0,0,0,0,0,0,0,0,0,0,0,0,0,0,0,0,0,0,0,0,0,0,0,0,0,0,0,0,0,0,0,0,0,0,0,0,0,0,0,0,0,0,0,0,0,0,0,0,0,-1.2756,-1.2756,0,-1.2733,-1.2732,-1.2732,-1.2726,-1.2726,-1.2726,-1.2726,-1.2702,-1.2701,-1.27,0,0,0,0,0,0,0,0,0,0,0,0,0,-1.2793,-1.2793,-1.2756,-1.2755,-1.2755,-1.2733,-1.2732,-1.2732,-1.2726,-1.2726,-1.2726,-1.2727,-1.2702,-1.2701,-1.27,0,0,0,0,0,0,0,0,0,0,0,0,0,-1.2774,-1.2793,-1.2756,-1.275,-1.2749,-1.2733,-1.2732,-1.2732,-1.2726,-1.2726,-1.2726,-1.2727,-1.2702,-1.2701,-1.27,-1.2688,0,0,-1.2696,-1.2696,0,0,0,0,0,0,0,0,-1.2775,-1.2773,-1.2751,-1.275,-1.2749,-1.2732,-1.2737,-1.2717,-1.2726,-1.2735,-1.2726,-1.2727,-1.2712,-1.271,-1.2705,-1.2687,-1.2686,-1.2696,-1.2696,-1.2695,-1.2695,0,0,0,0,0,0,0,-1.2777,-1.2774,-1.2747,-1.275,-1.2749,-1.2747,-1.2745,-1.2733,-1.2722,-1.2734,-1.2733,-1.2731,-1.2711,-1.2706,-1.2704,-1.2686,-1.2696,-1.2695,-1.2695,-1.2694,-1.2657,-1.2657,0,0,0,0,0,0,-1.2779,-1.2775,-1.2747,-1.2746,-1.2763,-1.2747,-1.2744,-1.2738,-1.2722,-1.272,-1.2731,-1.2731,-1.2708,-1.2706,-1.2704,-1.2689,-1.2695,-1.2694,-1.2693,-1.2657,-1.2657,-1.2657,0,0,0,0,0,0,-1.278,-1.2777,-1.2748,-1.276,-1.2757,-1.2746,-1.2739,-1.2737,-1.2732,-1.272,-1.2718,-1.2727,-1.2708,-1.2705,-1.2692,-1.2688,-1.2694,-1.2692,-1.2658,-1.2657,-1.2657,-1.2659,0,0,0,0,0,0,-1.2781,-1.2777,-1.2773,-1.276,-1.2756,-1.2738,-1.2738,-1.2736,-1.273,-1.273,-1.2716,-1.2714,-1.2708,-1.2694,-1.2691,-1.2686,-1.2692,-1.2658,-1.2657,-1.2657,-1.2659,-1.2659,-1.2658,0,0,0,0,0,-1.2783,-1.2774,-1.2773,-1.277,-1.2751,-1.2738,-1.2735,-1.2728,-1.273,-1.2725,-1.2717,-1.2715,-1.2689,-1.2693,-1.2689,-1.2684,-1.2658,-1.2657,-1.2657,-1.2659,-1.2659,-1.2658,0,0,0,0,0,0,-1.2787,-1.2773,-1.2771,-1.2758,-1.2749,-1.2737,-1.2731,-1.2728,-1.2718,-1.2718,-1.271,-1.2707,-1.2694,-1.2688,-1.2693,-1.2672,-1.2673,-1.2672,-1.2676,-1.2676,-1.2675,-1.2677,-1.2691,0,0,0,0,0,-1.2786,-1.2777,-1.2765,-1.2755,-1.2751,-1.2742,-1.2736,-1.2731,-1.2721,-1.2717,-1.2709,-1.2699,-1.2688,-1.2682,-1.2671,-1.2658,-1.2655,-1.2653,-1.2652,-1.2652,-1.2651,-1.2643,-1.2642,-1.2654,-1.2654,-1.2654,0,0,-1.2785,-1.2776,-1.2771,-1.2756,-1.2748,-1.2739,-1.2738,-1.2728,-1.2721,-1.2716,-1.2703,-1.2696,-1.2685,-1.2671,-1.2665,-1.2666,-1.2646,-1.2651,-1.2651,-1.265,-1.2642,-1.2641,-1.264,-1.2654,-1.2654,-1.2654,0,0,-1.2778,-1.2771,-1.2761,-1.2754,-1.2742,-1.2736,-1.2734,-1.2721,-1.2717,-1.2704,-1.27,-1.2691,-1.2673,-1.2665,-1.2658,-1.2647,-1.2645,-1.2644,-1.2641,-1.2634,-1.2633,-1.2632,-1.2628,-1.2626,-1.2643,-1.2643,-1.2643,0,-1.2778,-1.2764,-1.2757,-1.2747,-1.274,-1.2735,-1.2726,-1.2718,-1.2704,-1.2699,-1.27,-1.2678,-1.2669,-1.2654,-1.2651,-1.2646,-1.2643,-1.2646,-1.2634,-1.2633,-1.2632,-1.2627,-1.2626,-1.2643,-1.2643,-1.2643,-1.2643,0,-1.2764,-1.2754,-1.2748,-1.2734,-1.2727,-1.2717,-1.2709,-1.2702,-1.2698,-1.2691,-1.2678,-1.2668,-1.2655,-1.2651,-1.2648,-1.2635,-1.2636,-1.2635,-1.2637,-1.263,-1.2626,-1.2625,-1.2643,-1.2643,-1.2643,-1.2643,0,0,-1.2759,-1.2742,-1.274,-1.2733,-1.272,-1.2712,-1.2702,-1.269,-1.2684,-1.2674,-1.2665,-1.265,-1.2649,-1.2642,-1.2637,-1.263,-1.2622,-1.263,-1.2629,-1.2628,-1.2607,-1.2607,-1.2606,-1.262,-1.2619,-1.2619,-1.2608,0,-1.275,-1.2732,-1.2725,-1.271,-1.2701,-1.2696,-1.2687,-1.2677,-1.2671,-1.2662,-1.2654,-1.2644,-1.2644,-1.2639,-1.2632,-1.2624,-1.2617,-1.2625,-1.2611,-1.261,-1.2614,-1.2604,-1.2604,-1.2594,-1.2606,-1.2606,-1.2606,0,-1.2737,-1.2727,-1.2712,-1.2699,-1.2695,-1.2687,-1.2675,-1.2667,-1.2656,-1.2651,-1.2643,-1.2638,-1.2627,-1.2629,-1.2613,-1.2618,-1.2612,-1.2607,-1.2607,-1.2605,-1.2608,-1.2602,-1.2591,-1.2589,-1.2603,-1.2604,-1.2604,0,-1.2735,-1.2718,-1.2706,-1.2701,-1.2686,-1.268,-1.2674,-1.2663,-1.2656,-1.2646,-1.2641,-1.2629,-1.2623,-1.2614,-1.2606,-1.2608,-1.259,-1.2592,-1.2586,-1.2586,-1.2582,-1.2583,-1.257,-1.2579,-1.2579,-1.2579,-1.2579,0,-1.2725,-1.2716,-1.2705,-1.2697,-1.2686,-1.2679,-1.2668,-1.2661,-1.2651,-1.2642,-1.2637,-1.2628,-1.2619,-1.2609,-1.2602,-1.259,-1.2587,-1.2583,-1.2581,-1.2583,-1.2584,-1.2579,-1.2579,-1.2578,-1.2578,-1.2578,-1.2578,0,-1.2721,-1.2713,-1.27,-1.2687,-1.2684,-1.2676,-1.2665,-1.2657,-1.265,-1.2639,-1.2636,-1.2625,-1.2613,-1.2604,-1.2589,-1.2584,-1.2571,-1.2569,-1.2575,-1.2574,-1.2568,-1.2569,-1.2552,-1.255,-1.256,-1.256,-1.256,0,-1.2716,-1.2708,-1.2694,-1.2688,-1.2682,-1.2672,-1.2665,-1.2657,-1.2649,-1.2636,-1.263,-1.2618,-1.2607,-1.2588,-1.2579,-1.2567,-1.2565,-1.256,-1.2563,-1.2565,-1.2564,-1.2565,-1.2564,-1.2559,-1.2559,-1.2559,-1.2559,0,-1.2706,-1.2703,-1.2693,-1.2682,-1.2673,-1.2664,-1.2654,-1.2649,-1.264,-1.2631,-1.2619,-1.2611,-1.2595,-1.2583,-1.257,-1.2563,-1.2559,-1.2558,-1.2556,-1.2558,-1.2561,-1.2559,-1.2573,-1.2559,-1.2559,-1.2559,-1.2559,-1.2559,-1.2701,-1.2694,-1.2683,-1.2672,-1.2664,-1.2656,-1.2648,-1.264,-1.263,-1.2616,-1.2612,-1.2599,-1.2588,-1.257,-1.2563,-1.2552,-1.2553,-1.255,-1.2549,-1.2548,-1.2548,-1.2563,-1.255,-1.255,-1.255,-1.255,-1.255,0,-1.2692,-1.2684,-1.2674,-1.2661,-1.2653,-1.265,-1.2639,-1.2632,-1.2621,-1.2611,-1.2601,-1.2587,-1.2575,-1.2564,-1.2551,-1.2545,-1.2543,-1.2542,-1.2542,-1.254,-1.2549,-1.2552,-1.2544,-1.2544,-1.2544,-1.2544,-1.2544,-1.2544,-1.2686,-1.2673,-1.2669,-1.2652,-1.2645,-1.2633,-1.2627,-1.2618,-1.261,-1.2594,-1.2584,-1.2578,-1.2567,-1.2554,-1.2542,-1.254,-1.2535,-1.2534,-1.2531,-1.2539,-1.254,-1.2541,-1.2543,-1.2534,-1.2533,-1.2523,-1.2523,-1.2523]},{"header":{"parameterUnit":"m.s-1","parameterCategory":1,"la1":30.2991,"la2":30.254,"lo1":-89.0895,"lo2":-89.0444,"dy":0.0017,"dx":0.0017,"nx":28,"ny":28,"refTime":"2024-10-09T09:00:00:Z","depth":0,"parameterNumber":3,"parameterNumberName":"V-component_of_WINDS"},"data":[0,0,0,0,0,0,0,0,0,0,0,0,0,0,0,0,0,0,0,0,0,0,0,0,0,0,0,0,0,0,0,0,0,0,0,0,0,0,0,0,0,0,0,0,0,0,0,0,0,0,0,0,0,0,0,0,0,0,-3.5546,-3.5547,0,-3.5581,-3.5582,-3.5582,-3.5581,-3.5581,-3.5581,-3.558,-3.5613,-3.5614,-3.5615,0,0,0,0,0,0,0,0,0,0,0,0,0,-3.5477,-3.5479,-3.5546,-3.5547,-3.5547,-3.5581,-3.5582,-3.5582,-3.5582,-3.5581,-3.558,-3.558,-3.5612,-3.5614,-3.5616,0,0,0,0,0,0,0,0,0,0,0,0,0,-3.5509,-3.5479,-3.5546,-3.5551,-3.5552,-3.5581,-3.5582,-3.5582,-3.5582,-3.5581,-3.558,-3.558,-3.5612,-3.5614,-3.5616,-3.5642,0,0,-3.5622,-3.5623,0,0,0,0,0,0,0,0,-3.5507,-3.5512,-3.555,-3.5551,-3.5552,-3.5576,-3.557,-3.5602,-3.5582,-3.557,-3.558,-3.5579,-3.5601,-3.5604,-3.5612,-3.5643,-3.5645,-3.5622,-3.5623,-3.5624,-3.5624,0,0,0,0,0,0,0,-3.5505,-3.551,-3.556,-3.555,-3.5552,-3.5551,-3.5555,-3.5576,-3.5589,-3.5571,-3.5571,-3.5576,-3.5601,-3.561,-3.5613,-3.5645,-3.5622,-3.5624,-3.5625,-3.5626,-3.5703,-3.5703,0,0,0,0,0,0,-3.5502,-3.5508,-3.5559,-3.5561,-3.5527,-3.5553,-3.5557,-3.5569,-3.5589,-3.5591,-3.5576,-3.5575,-3.5607,-3.561,-3.5614,-3.5648,-3.5624,-3.5626,-3.5627,-3.5702,-3.5703,-3.5704,0,0,0,0,0,0,-3.5501,-3.5507,-3.5557,-3.5535,-3.5541,-3.5555,-3.5568,-3.557,-3.5579,-3.5593,-3.5595,-3.5583,-3.5607,-3.5611,-3.5636,-3.5649,-3.5627,-3.5628,-3.5701,-3.5702,-3.5703,-3.5714,0,0,0,0,0,0,-3.5499,-3.5506,-3.5516,-3.5535,-3.5543,-3.5579,-3.5569,-3.5571,-3.5583,-3.5582,-3.5599,-3.5601,-3.5606,-3.5633,-3.5638,-3.5651,-3.563,-3.57,-3.5701,-3.5703,-3.5713,-3.5716,-3.5719,0,0,0,0,0,-3.5496,-3.5517,-3.5517,-3.5523,-3.5556,-3.558,-3.5584,-3.559,-3.5584,-3.5594,-3.5603,-3.5601,-3.5646,-3.5635,-3.5641,-3.5655,-3.5699,-3.5701,-3.5703,-3.5712,-3.5715,-3.5718,0,0,0,0,0,0,-3.5497,-3.5519,-3.552,-3.5547,-3.5562,-3.558,-3.5593,-3.5594,-3.561,-3.5608,-3.5615,-3.5618,-3.5644,-3.5651,-3.5639,-3.5683,-3.5672,-3.5675,-3.5677,-3.568,-3.5683,-3.5681,-3.5632,0,0,0,0,0,-3.5501,-3.552,-3.5537,-3.556,-3.5567,-3.5579,-3.559,-3.5594,-3.5609,-3.5615,-3.5626,-3.564,-3.5658,-3.5669,-3.5686,-3.5714,-3.5719,-3.5727,-3.5729,-3.5732,-3.5734,-3.5752,-3.5757,-3.571,-3.571,-3.571,0,0,-3.5508,-3.5522,-3.5533,-3.556,-3.5572,-3.5592,-3.5584,-3.5604,-3.5619,-3.5617,-3.5643,-3.5651,-3.5667,-3.5695,-3.5707,-3.5702,-3.5748,-3.5734,-3.5736,-3.5737,-3.5755,-3.5759,-3.5763,-3.5711,-3.5711,-3.5711,0,0,-3.5532,-3.5544,-3.5565,-3.5578,-3.5597,-3.5605,-3.561,-3.5629,-3.5636,-3.5661,-3.5661,-3.5678,-3.5708,-3.5721,-3.5731,-3.5762,-3.5761,-3.5767,-3.5782,-3.5799,-3.5803,-3.5806,-3.582,-3.5824,-3.577,-3.577,-3.577,0,-3.5538,-3.5568,-3.5575,-3.5597,-3.5609,-3.5611,-3.5633,-3.5645,-3.5668,-3.5677,-3.5671,-3.5711,-3.5721,-3.5753,-3.5761,-3.5768,-3.5775,-3.5766,-3.5802,-3.5805,-3.5809,-3.5821,-3.5826,-3.5771,-3.5771,-3.5771,-3.577,0,-3.5575,-3.5596,-3.5611,-3.5636,-3.565,-3.5671,-3.5683,-3.5696,-3.5699,-3.5708,-3.5735,-3.5748,-3.5769,-3.5777,-3.5779,-3.5809,-3.5806,-3.5801,-3.579,-3.5814,-3.5826,-3.5831,-3.5772,-3.5772,-3.5771,-3.5771,0,0,-3.5599,-3.563,-3.5636,-3.5648,-3.5671,-3.5687,-3.5709,-3.5731,-3.5744,-3.576,-3.5779,-3.5806,-3.5803,-3.5814,-3.5818,-3.5833,-3.586,-3.5827,-3.5827,-3.5834,-3.5897,-3.5901,-3.5907,-3.5859,-3.586,-3.5861,-3.5896,0,-3.5626,-3.5667,-3.5676,-3.5711,-3.5732,-3.5735,-3.5754,-3.577,-3.578,-3.5798,-3.5807,-3.5827,-3.582,-3.5828,-3.5843,-3.5853,-3.5873,-3.5851,-3.5878,-3.5879,-3.5875,-3.5913,-3.5917,-3.595,-3.5901,-3.5901,-3.5902,0,-3.5663,-3.5683,-3.5721,-3.5744,-3.5753,-3.577,-3.5793,-3.581,-3.5829,-3.5835,-3.585,-3.5852,-3.5876,-3.5864,-3.5897,-3.5882,-3.5894,-3.5901,-3.5902,-3.5906,-3.5893,-3.5919,-3.596,-3.5966,-3.5909,-3.5908,-3.5908,0,-3.5679,-3.5715,-3.5744,-3.5754,-3.578,-3.5793,-3.5805,-3.5823,-3.5837,-3.5856,-3.5865,-3.5886,-3.5898,-3.5915,-3.5924,-3.5914,-3.5957,-3.5945,-3.5963,-3.5963,-3.5973,-3.5972,-3.6018,-3.5978,-3.5978,-3.5978,-3.5977,0,-3.5709,-3.5733,-3.5752,-3.5769,-3.5796,-3.5806,-3.5832,-3.5844,-3.586,-3.588,-3.5883,-3.5901,-3.5912,-3.5931,-3.5938,-3.5966,-3.5971,-3.5977,-3.5978,-3.5977,-3.5977,-3.5986,-3.5984,-3.5979,-3.5979,-3.5978,-3.5978,0,-3.5732,-3.5745,-3.5777,-3.5801,-3.5807,-3.5826,-3.5846,-3.5864,-3.5874,-3.5899,-3.5905,-3.5921,-3.5945,-3.5956,-3.5984,-3.5989,-3.6022,-3.6021,-3.6016,-3.6017,-3.6035,-3.6034,-3.6089,-3.6098,-3.605,-3.6051,-3.6051,0,-3.5751,-3.577,-3.5797,-3.5811,-3.5824,-3.5846,-3.5862,-3.5872,-3.5888,-3.5913,-3.5927,-3.5952,-3.5972,-3.601,-3.6024,-3.6046,-3.6047,-3.6065,-3.605,-3.605,-3.605,-3.605,-3.6052,-3.6068,-3.6068,-3.6069,-3.6069,0,-3.5784,-3.5791,-3.5813,-3.5838,-3.5857,-3.5877,-3.5896,-3.5908,-3.5922,-3.5939,-3.5965,-3.5981,-3.6012,-3.6037,-3.6061,-3.6073,-3.6074,-3.6074,-3.608,-3.6079,-3.6077,-3.6081,-3.6025,-3.6072,-3.6072,-3.6072,-3.6072,-3.6072,-3.5806,-3.5824,-3.5847,-3.5873,-3.5889,-3.5908,-3.5927,-3.5941,-3.5963,-3.5991,-3.5995,-3.6023,-3.6044,-3.6077,-3.6089,-3.6111,-3.6107,-3.6114,-3.6117,-3.6119,-3.6121,-3.6072,-3.6115,-3.6115,-3.6115,-3.6115,-3.6115,0,-3.5841,-3.5857,-3.588,-3.591,-3.593,-3.5931,-3.5953,-3.597,-3.5996,-3.6015,-3.6036,-3.6067,-3.6092,-3.6109,-3.6134,-3.6148,-3.615,-3.6155,-3.6155,-3.6158,-3.6123,-3.6116,-3.6154,-3.6154,-3.6154,-3.6154,-3.6154,-3.6154,-3.5862,-3.5894,-3.5903,-3.5944,-3.5959,-3.5988,-3.6001,-3.6019,-3.6035,-3.607,-3.6092,-3.6103,-3.6122,-3.6149,-3.6172,-3.6177,-3.6187,-3.6192,-3.6197,-3.6164,-3.616,-3.6156,-3.615,-3.6194,-3.6194,-3.623,-3.623,-3.6231]}]]